Flag for Brazil Weather past 2 weeks in Brasilia, Distrito Federal, Brazil

Now
70 °F

Passing clouds.


Feels Like: 70 °F
Forecast: 67 / 76 °F
Wind: 6 mph from East

Location: Brasilia Aeroporto

Current Time: Dec 19, 2014 at 1:18:56 AM

Latest Report: Dec 19, 2014 at 1:00 AM


Visibility: N/A

Pressure: 30.04 "Hg

Humidity: 83%

Dew point: 64 °F

Location of BrasiliaLocation

Historic Weather in Brasilia — Graph

°F

Brasilia temperature yesterday

Maximum temperature yesterday: 81 °F (at 1:00 PM)
Minimum temperature yesterday: 37 °F (at 5:00 PM)
Average temperature yesterday: 73 °F

Past Weeks' High & Low Weather Summary

 TemperatureHumidityPressure
High86 °F (Dec 9, 5:00 AM)100% (Dec 17, 7:00 AM)30.15 "Hg (Dec 17, 7:00 AM)
Low37 °F (Dec 18, 5:00 PM)42% (Dec 4, 2:00 PM)29.89 "Hg (Dec 13, 6:00 PM)
Average72 °F76%30.04 "Hg
* Reported Midnight between Dec 3 and Dec 4 — Midnight between Dec 18 and Dec 19, Brasilia, Weather by CustomWeather, © 2014

Note: Actual official high and low records may vary slightly from our data, if they occured in-between our weather recording intervals... More about our weather records

Advertising

Brasilia weather history for previous 24 hours

 ConditionsComfort  
Time TempWeatherWind HumidityBarometerVisibility
12:00 AM
Dec 19
72 °FThundershowers. Passing clouds.No wind83%30.04 "HgN/A
11:00 PM
Dec 18
72 °FThundershowers. Partly cloudy.5 mph83%N/AN/A
10:00 PM73 °FThundershowers. Partly cloudy.No wind74%N/AN/A
9:00 PM73 °FThundershowers. Partly cloudy.8 mph74%N/AN/A
8:00 PM73 °FThundershowers. Broken clouds.6 mph69%N/AN/A
7:00 PM75 °FThundershowers. Broken clouds.6 mph69%N/AN/A
6:00 PM77 °FBroken clouds.9 mph74%29.92 "HgN/A
5:00 PM37 °FScattered showers. Broken clouds.10 mph100%29.92 "HgN/A
4:00 PM79 °FBroken clouds.5 mph65%29.92 "HgN/A
3:00 PM79 °FBroken clouds.5 mph61%29.95 "HgN/A
2:00 PM79 °FPartly sunny.5 mph61%30.01 "HgN/A
1:00 PM81 °FBroken clouds.9 mph58%30.01 "HgN/A
12:00 PM79 °FBroken clouds.7 mph65%30.04 "HgN/A
11:00 AM75 °FBroken clouds.6 mph74%30.04 "HgN/A
10:00 AM73 °FBroken clouds.6 mph83%30.04 "HgN/A
9:00 AM72 °FPartly sunny.2 mph88%30.04 "HgN/A
8:00 AM72 °FBroken clouds.No wind83%30.01 "HgN/A
7:00 AM72 °FPassing clouds.No wind83%29.98 "HgN/A
6:00 AM72 °FPassing clouds.No wind83%29.95 "HgN/A
5:00 AM70 °FPassing clouds.No wind94%29.98 "HgN/A
4:00 AM72 °FPassing clouds.3 mph83%29.95 "HgN/A
3:00 AM72 °FPassing clouds.No wind88%29.98 "HgN/A
2:00 AM72 °FPassing clouds.No wind83%30.01 "HgN/A
1:00 AM72 °FPassing clouds.3 mph88%30.01 "HgN/A
Weather by CustomWeather, © 2014

See weather overviewHow to use our weather pages